Hourly Data Report for October 07, 2014

All times are specified in Local Standard Time (LST). Add 1 hour to adjust for Daylight Saving Time where and when it is observed.

SAINT JOHN A
NEW BRUNSWICK

45°18'58.000" N
65°53'24.000" W
108.80 m
8104901
71609
YSJ

Download Data

Hourly Data (October 2014)
Hourly Data Report for October 7, 2014
Temp Definition
°C
Dew Point Temp Definition
°C
Rel Hum Definition
%
Wind Dir Definition
10's deg

Wind Spd Definition
km/h
Visibility Definition
km
Stn Press Definition
kPa
Hmdx Definition


Wind Chill Definition


Weather Definition


TIME
00:00 Legend Double Dagger 1.9 1.9 100 5 4 24.1 101.17     LegendNANA
01:00 Legend Double Dagger 1.0 1.0 100 36 2 0.8 101.17     Fog
02:00 Legend Double Dagger 2.2 2.2 100 34 5 0.8 101.19     Fog
03:00 Legend Double Dagger 2.2 2.2 100 36 1 0.4 101.22     Fog
04:00 Legend Double Dagger 5.1 5.1 100 35 4 0.2 101.19     Fog
05:00 Legend Double Dagger 3.9 3.9 100 31 3 0.8 101.24     Fog
06:00 Legend Double Dagger 4.8 4.8 100 36 2 2.4 101.26     LegendNANA
07:00 Legend Double Dagger 4.6 4.6 100 32 4 9.7 101.30     LegendNANA
08:00 Legend Double Dagger 10.1 10.1 100 36 3 24.1 101.33     Mainly Clear
09:00 Legend Double Dagger 12.2 11.7 97 15 17 24.1 101.31     LegendNANA
10:00 Legend Double Dagger 14.1 9.0 71 18 18 24.1 101.33     LegendNANA
11:00 Legend Double Dagger 15.5 8.3 62 16 21 24.1 101.29     Mainly Clear
12:00 Legend Double Dagger 15.5 7.1 57 14 21 24.1 101.15     LegendNANA
13:00 Legend Double Dagger 16.3 5.7 49 18 15 24.1 101.11     LegendNANA
14:00 Legend Double Dagger 16.5 8.0 57 15 18 24.1 101.05     Mostly Cloudy
15:00 Legend Double Dagger 17.2 8.2 55 17 22 24.1 100.97     LegendNANA
16:00 Legend Double Dagger 16.3 8.6 60 16 16 24.1 100.93     LegendNANA
17:00 Legend Double Dagger 14.8 9.0 68 14 13 24.1 100.92     Mostly Cloudy
18:00 Legend Double Dagger 12.5 9.4 81 13 12 24.1 100.90     LegendNANA
19:00 Legend Double Dagger 11.3 9.1 86 20 10 24.1 100.90     LegendNANA
20:00 Legend Double Dagger 9.5 8.4 93 36 3 24.1 100.92     Mostly Cloudy
21:00 Legend Double Dagger 9.9 8.7 92 21 4 24.1 100.90     LegendNANA
22:00 Legend Double Dagger 12.4 10.8 90 16 16 24.1 100.87     LegendNANA
23:00 Legend Double Dagger 13.1 11.5 90 16 19 24.1 100.86     Cloudy

Notes on Data Quality.

Legend

  • E = Estimated
  • M = Missing
  • NA = Not Available
  • ‡ = Partner data that is not subject to review by the National Climate Archives
Date modified: